TimeCDT,TemperatureF,Dew PointF,Humidity,Sea Level PressureIn,VisibilityMPH,Wind Direction,Wind SpeedMPH,Gust SpeedMPH,PrecipitationIn,Events,Conditions,WindDirDegrees,DateUTC
12:15 AM,68.4,66.9,95,30.01,5.0,Calm,Calm,-,N/A,,Clear,0,2013-09-10 05:15:00
12:35 AM,68.2,66.4,94,30.01,7.0,Calm,Calm,-,N/A,,Clear,0,2013-09-10 05:35:00
12:55 AM,68.0,66.2,94,30.01,5.0,Calm,Calm,-,N/A,,Clear,0,2013-09-10 05:55:00
1:15 AM,67.3,65.8,95,30.01,7.0,Calm,Calm,-,N/A,,Clear,0,2013-09-10 06:15:00
1:35 AM,67.1,65.7,95,30.01,5.0,Calm,Calm,-,N/A,,Clear,0,2013-09-10 06:35:00
1:55 AM,67.1,65.7,95,30.01,5.0,Calm,Calm,-,N/A,,Clear,0,2013-09-10 06:55:00
2:15 AM,67.1,65.5,95,30.02,7.0,Calm,Calm,-,N/A,,Clear,0,2013-09-10 07:15:00
2:35 AM,67.1,65.5,95,30.02,5.0,Calm,Calm,-,N/A,,Clear,0,2013-09-10 07:35:00
2:55 AM,66.6,64.9,95,30.03,5.0,Calm,Calm,-,N/A,,Clear,0,2013-09-10 07:55:00
3:15 AM,66.9,65.5,95,30.03,5.0,Calm,Calm,-,N/A,,Clear,0,2013-09-10 08:15:00
3:35 AM,66.2,64.8,95,30.03,5.0,Calm,Calm,-,N/A,,Clear,0,2013-09-10 08:35:00
3:55 AM,66.4,64.6,94,30.04,5.0,Calm,Calm,-,N/A,,Clear,0,2013-09-10 08:55:00
4:15 AM,66.4,64.8,95,30.04,5.0,Calm,Calm,-,N/A,,Clear,0,2013-09-10 09:15:00
4:35 AM,65.8,64.4,95,30.05,5.0,Calm,Calm,-,N/A,,Clear,0,2013-09-10 09:35:00
4:55 AM,66.0,64.4,94,30.05,5.0,Calm,Calm,-,N/A,,Clear,0,2013-09-10 09:55:00
5:15 AM,66.2,64.8,95,30.05,4.0,Calm,Calm,-,N/A,,Clear,0,2013-09-10 10:15:00
5:35 AM,65.3,63.9,95,30.06,4.0,Calm,Calm,-,N/A,,Clear,0,2013-09-10 10:35:00
5:55 AM,65.3,63.7,94,30.06,4.0,Calm,Calm,-,N/A,,Clear,0,2013-09-10 10:55:00
6:15 AM,65.3,63.7,94,30.06,4.0,Calm,Calm,-,N/A,,Clear,0,2013-09-10 11:15:00
6:35 AM,65.1,63.7,95,30.07,4.0,Calm,Calm,-,N/A,,Clear,0,2013-09-10 11:35:00
6:55 AM,65.3,64.0,96,30.07,2.5,Calm,Calm,-,N/A,,Clear,0,2013-09-10 11:55:00
7:15 AM,65.5,64.4,96,30.09,3.0,Calm,Calm,-,N/A,,Clear,0,2013-09-10 12:15:00
7:35 AM,67.5,66.0,95,30.09,5.0,Calm,Calm,-,N/A,,Clear,0,2013-09-10 12:35:00
7:55 AM,69.1,67.6,95,30.10,3.0,Calm,Calm,-,N/A,,Clear,0,2013-09-10 12:55:00
8:15 AM,71.8,69.4,92,30.10,5.0,Calm,Calm,-,N/A,,Clear,0,2013-09-10 13:15:00
8:35 AM,74.3,71.1,90,30.10,7.0,Calm,Calm,-,N/A,,Clear,0,2013-09-10 13:35:00
8:55 AM,76.1,71.6,86,30.11,10.0,ENE,3.5,-,N/A,,Clear,60,2013-09-10 13:55:00
9:15 AM,79.0,72.5,80,30.11,10.0,ENE,3.5,-,N/A,,Clear,60,2013-09-10 14:15:00
9:35 AM,81.5,71.8,72,30.11,10.0,Calm,Calm,-,N/A,,Clear,0,2013-09-10 14:35:00
9:55 AM,82.8,71.4,68,30.12,10.0,East,4.6,-,N/A,,Clear,90,2013-09-10 14:55:00
10:15 AM,84.0,70.9,64,30.12,10.0,East,5.8,-,N/A,,Clear,80,2013-09-10 15:15:00
10:35 AM,84.7,70.2,61,30.11,10.0,ENE,3.5,-,N/A,,Clear,70,2013-09-10 15:35:00
10:55 AM,86.7,70.2,58,30.11,10.0,NE,5.8,-,N/A,,Clear,50,2013-09-10 15:55:00
11:15 AM,87.3,69.1,55,30.11,10.0,East,4.6,-,N/A,,Clear,80,2013-09-10 16:15:00
11:35 AM,86.0,68.5,56,30.11,10.0,NE,4.6,-,N/A,,Clear,50,2013-09-10 16:35:00
11:55 AM,87.3,68.9,54,30.11,10.0,ESE,4.6,-,N/A,,Clear,110,2013-09-10 16:55:00
12:15 PM,89.2,68.0,49,30.10,10.0,ENE,6.9,-,N/A,,Clear,60,2013-09-10 17:15:00
12:35 PM,90.7,66.4,45,30.10,10.0,ENE,8.1,-,N/A,,Clear,70,2013-09-10 17:35:00
12:55 PM,91.2,65.3,42,30.10,10.0,East,6.9,-,N/A,,Clear,100,2013-09-10 17:55:00
1:15 PM,91.9,66.9,44,30.09,10.0,East,6.9,-,N/A,,Clear,90,2013-09-10 18:15:00
1:35 PM,91.6,67.1,44,30.09,10.0,East,4.6,-,N/A,,Scattered Clouds,100,2013-09-10 18:35:00
1:55 PM,91.6,67.5,45,30.08,10.0,ESE,5.8,16.1,N/A,,Clear,120,2013-09-10 18:55:00
2:15 PM,92.3,68.0,45,30.07,10.0,SE,4.6,-,N/A,,Scattered Clouds,130,2013-09-10 19:15:00
2:35 PM,92.3,67.3,44,30.06,10.0,ESE,5.8,-,N/A,,Scattered Clouds,110,2013-09-10 19:35:00
2:55 PM,92.3,66.7,43,30.05,10.0,East,8.1,16.1,N/A,,Clear,90,2013-09-10 19:55:00
3:15 PM,91.9,66.2,43,30.04,10.0,East,6.9,-,N/A,,Scattered Clouds,90,2013-09-10 20:15:00
3:35 PM,93.4,67.6,43,30.03,10.0,ESE,6.9,-,N/A,,Scattered Clouds,120,2013-09-10 20:35:00
3:55 PM,92.8,67.6,43,30.03,10.0,ESE,6.9,-,N/A,,Scattered Clouds,110,2013-09-10 20:55:00
4:15 PM,92.7,67.5,43,30.02,10.0,East,5.8,-,N/A,,Clear,80,2013-09-10 21:15:00
4:35 PM,90.3,67.3,47,30.02,10.0,East,5.8,-,N/A,,Scattered Clouds,100,2013-09-10 21:35:00
4:55 PM,89.6,67.5,48,30.01,10.0,ESE,5.8,-,N/A,,Clear,110,2013-09-10 21:55:00
5:15 PM,89.6,68.2,49,30.02,10.0,ESE,4.6,-,N/A,,Scattered Clouds,120,2013-09-10 22:15:00
5:35 PM,88.7,68.9,52,30.02,10.0,SE,4.6,-,N/A,,Scattered Clouds,130,2013-09-10 22:35:00
5:55 PM,86.5,69.1,56,30.03,10.0,ESE,8.1,-,N/A,,Scattered Clouds,120,2013-09-10 22:55:00
6:15 PM,84.4,69.8,61,30.02,10.0,ESE,5.8,-,N/A,,Clear,120,2013-09-10 23:15:00
6:35 PM,84.2,69.1,60,30.03,10.0,Calm,Calm,-,N/A,,Clear,0,2013-09-10 23:35:00
6:55 PM,82.6,69.3,64,30.03,10.0,Calm,Calm,-,N/A,,Clear,0,2013-09-10 23:55:00
7:15 PM,81.3,69.8,68,30.04,10.0,Calm,Calm,-,N/A,,Clear,0,2013-09-11 00:15:00
7:35 PM,80.2,69.8,70,30.04,10.0,Calm,Calm,-,N/A,,Clear,0,2013-09-11 00:35:00
7:55 PM,79.2,70.2,74,30.04,10.0,Calm,Calm,-,N/A,,Clear,0,2013-09-11 00:55:00
8:15 PM,77.9,70.3,77,30.05,10.0,Calm,Calm,-,N/A,,Clear,0,2013-09-11 01:15:00
8:35 PM,75.6,71.1,86,30.06,10.0,Calm,Calm,-,N/A,,Clear,0,2013-09-11 01:35:00
8:55 PM,75.2,70.7,86,30.06,10.0,Calm,Calm,-,N/A,,Clear,0,2013-09-11 01:55:00
9:15 PM,73.9,70.7,90,30.07,10.0,Calm,Calm,-,N/A,,Clear,0,2013-09-11 02:15:00
9:35 PM,73.4,70.5,91,30.08,10.0,Calm,Calm,-,N/A,,Clear,0,2013-09-11 02:35:00
9:55 PM,72.5,70.0,92,30.09,7.0,Calm,Calm,-,N/A,,Clear,0,2013-09-11 02:55:00
10:15 PM,72.5,70.0,92,30.09,7.0,Calm,Calm,-,N/A,,Clear,0,2013-09-11 03:15:00
10:35 PM,72.0,69.8,93,30.10,7.0,Calm,Calm,-,N/A,,Clear,0,2013-09-11 03:35:00
10:55 PM,71.8,69.6,93,30.10,7.0,Calm,Calm,-,N/A,,Clear,0,2013-09-11 03:55:00
11:15 PM,71.2,69.6,95,30.09,5.0,Calm,Calm,-,N/A,,Clear,0,2013-09-11 04:15:00
11:35 PM,70.9,69.3,95,30.09,5.0,Calm,Calm,-,N/A,,Clear,0,2013-09-11 04:35:00
11:55 PM,70.7,69.1,95,30.09,5.0,Calm,Calm,-,N/A,,Clear,0,2013-09-11 04:55:00